Flag for Costa Rica Weather past 2 weeks in Limón, Costa Rica

Now
70 °F

Clear.


Feels Like: 70 °F
Forecast: 73 / 88 °F
Wind: 7 mph from East

Location: Juan Santamaria

Current Time: Sep 21, 2014 at 4:17:40 AM

Latest Report: Sep 21, 2014 at 4:00 AM


Visibility: 10 mi

Pressure: 30.01 "Hg

Humidity: 78%

Dew point: 63 °F

Location of LimónLocation

Historic Weather in Limón — Graph

°F

Limón temperature yesterday

Maximum temperature yesterday: 79 °F (at 12:00 PM)
Minimum temperature yesterday: 64 °F (at 4:00 AM)
Average temperature yesterday: 69 °F

Past Weeks' High & Low Weather Summary

 TemperatureHumidityPressure
High84 °F (Sep 17, 12:00 PM)100% (Sep 8, 9:00 PM)30.14 "Hg (Sep 8, 9:00 PM)
Low64 °F (Sep 19, 4:00 AM)48% (Sep 16, 12:00 PM)29.90 "Hg (Sep 11, 3:00 PM)
Average71 °F83%30.00 "Hg
* Reported Sep 6 3:00 AM — Sep 21 3:00 AM, Limón, Weather by CustomWeather, © 2014

Note: Actual official high and low records may vary slightly from our data, if they occured in-between our weather recording intervals... More about our weather records

Advertising

Limón weather history for previous 24 hours

 ConditionsComfort  
Time TempWeatherWind HumidityBarometerVisibility
3:00 AM
Sep 21
68 °FClear.7 mph83%29.98 "Hg10 mi
2:00 AM66 °FClear.6 mph88%29.97 "Hg10 mi
1:00 AM66 °FClear.6 mph94%29.97 "Hg10 mi
12:00 AM66 °FClear.5 mph94%30.00 "Hg10 mi
11:00 PM
Sep 20
66 °FClear.3 mph94%30.02 "Hg10 mi
10:00 PM66 °FPassing clouds.2 mph94%30.05 "HgN/A
9:00 PM66 °FPassing clouds.2 mph100%30.06 "HgN/A
8:00 PM68 °FOvercast.5 mph94%30.04 "HgN/A
7:00 PM66 °FLight rain. Fog.2 mph94%30.04 "Hg5 mi
6:00 PM66 °FRain. Fog.2 mph100%30.03 "Hg3 mi
5:00 PM68 °FRain. Fog.No wind94%29.99 "Hg3 mi
4:00 PM68 °FMild.7 mph94%29.98 "HgN/A
3:00 PM72 °FThunderstorms. Broken clouds.8 mph73%29.98 "Hg3 mi
2:00 PM79 °FRain. Broken clouds.12 mph70%29.97 "Hg5 mi
1:00 PM79 °FScattered showers. Partly sunny.8 mph65%30.00 "HgN/A
12:00 PM79 °FScattered clouds.10 mph61%30.03 "HgN/A
7:00 AM72 °FSunny.6 mph73%30.03 "Hg10 mi
6:00 AM66 °FSunny.10 mph83%30.00 "Hg10 mi
5:00 AM64 °FClear.8 mph94%30.00 "Hg10 mi
4:00 AM64 °FClear.7 mph100%29.99 "Hg10 mi
Weather by CustomWeather, © 2014

See weather overviewHow to use our weather pages